Regional Weather Roundup
Issued by NWS

Home | Current Version | Previous Version | Graphics & Text | Print | Product List | Glossary On
Versions: 1 2 3 4 5 6 7 8 9 10 11 12 13 14 15 16 17 18 19 20 21 22 23 24 25 26 27 28 29 30 31 32 33 34 35 36 37 38 39 40 41 42 43 44 45 46 47 48 49 50
000
ASUS44 KMEG 300410
RWRTN
TENNESSEE HOURLY STATE WEATHER ROUNDUP
NATIONAL WEATHER SERVICE MEMPHIS TN
1100 PM CDT SAT APR 29 2017

TNZ002-004-019-021-049-052-054-088>092-300500-
WEST TENNESSEE

CITY           SKY/WX    TMP DP  RH WIND       PRES   REMARKS
MEMPHIS INTL   CLOUDY    75  69  81 SE10      29.83F
NWS MEMPHIS      N/A     71 N/A N/A MISG        N/A
JACKSON        CLOUDY    79  66  64 S9G17     29.89F
SOMERVILLE     PTCLDY    79  66  65 S8        29.87F
UNION CITY     CLOUDY    68  64  88 W8G16     29.91S
BOLIVAR        PTCLDY    79  66  65 SE14G21   29.89S
HUNTINGDON     PTCLDY    77  66  69 S12       29.89F
LEXINGTON      PTCLDY    77  64  65 S9G16     29.91F
SAVANNAH       MOCLDY    77  66  69 S7G17     29.92F
$$

TNZ008-025-027-028-033-062-065-066-300500-
NORTH MIDDLE TENNESSEE

CITY           SKY/WX    TMP DP  RH WIND       PRES   REMARKS
NASHVILLE      CLEAR     74  63  68 S7        29.98R
PORTLAND       CLEAR     73  66  78 S7        29.97S
CLARKSVILLE    CLEAR     76  63  64 S6        29.93F
SMYRNA         CLEAR     76  64  66 S5        29.98F
COOKEVILLE     CLEAR     72  66  83 S8        30.02S
GALLATIN       CLEAR     72  66  83 CALM      30.00S
CROSSVILLE     CLOUDY    69  65  86 S7        30.10S
$$

TNZ061-075-076-078-094-096-097-300500-
SOUTH MIDDLE TENNESSEE

CITY           SKY/WX    TMP DP  RH WIND       PRES   REMARKS
FAYETTEVILLE   CLEAR     75  64  69 S10       30.01S
TULLAHOMA      CLEAR     75  61  60 SE6       30.03F
WINCHESTER     CLEAR     73  63  68 S7        30.03F
MCMINNVILLE    CLEAR     72  66  83 CALM      30.02F
COLUMBIA       CLEAR     75  72  88 S7        29.96R
SHELBYVILLE    CLEAR     77  64  65 SE8       30.01S
$$

TNZ017-018-042-046-047-300500-
NORTHEAST TENNESSEE

CITY           SKY/WX    TMP DP  RH WIND       PRES   REMARKS
TRI CITIES     CLOUDY    75  64  68 S6        30.12R
ELIZABETHTON   CLOUDY    72  63  73 E5        30.12S
$$

TNZ012-013-036-069-073-074-300500-
CENTRAL EAST TENNESSEE

CITY           SKY/WX    TMP DP  RH WIND       PRES   REMARKS
KNOXVILLE      MOCLDY    78  61  55 S8        30.06R
OAK RIDGE      PTCLDY    75  65  70 CALM      30.07S
DOWNTOWN KNOXV CLEAR     79  63  57 VRB3      30.06S
GATLINBURG     PTCLDY    73  61  64 E6        30.06F
MORRISTOWN     CLEAR     75  61  60 CALM      30.07F
JACKSBORO      CLEAR     79  64  61 S9        30.09R
$$

TNZ083-085-099-300500-
SOUTHEAST TENNESSEE

CITY           SKY/WX    TMP DP  RH WIND       PRES   REMARKS
CHATTANOOGA    PTCLDY    70  69  97 E3        30.05F FOG
$$

SKY/WX REPORTED AS FAIR MEANS FEW OR NO CLOUDS BELOW
12 THOUSAND FEET.





USA.gov is the U.S. government's official web portal to all federal, state and local government web resources and services.